Change the Weather History Date:

Friday, August 30, 2013

  Actual Average Record
Temperature  
Mean Temperature 84 °F 81 °F  
Max Temperature 92 °F 90 °F 96 °F (2001)
Min Temperature 75 °F 71 °F 70 °F (2001)
Degree Days  
Heating Degree Days 0 0  
Month to date heating degree days 0 0  
Since 1 June heating degree days 0 0  
Since 1 July heating degree days 0 0  
Cooling Degree Days 19 16  
Month to date cooling degree days 526 490  
Year to date cooling degree days 2029 1924  
Since 1 June cooling degree days 1494 1445  
Growing Degree Days 33 (Base 50)    
Moisture  
Dew Point 75 °F    
Average Humidity 77    
Maximum Humidity 94    
Minimum Humidity 56    
Precipitation  
Precipitation 0.02 in 0.24 in 0.96 in (2004)
Month to date precipitation 9.86 7.22  
Year to date precipitation 52.76 35.14  
Sea Level Pressure  
Sea Level Pressure 29.94 in    
Wind  
Wind Speed 4 mph (West)    
Max Wind Speed 13 mph    
Max Gust Speed 16 mph    
T = Trace of Precipitation, MM = Missing Value Source: NWS Daily Summary

Daily Weather History Graph

Daily Weather History Graph

Search for Another Location

Airport or City:

Trip Planner

Search our weather history database for the weather conditions in past years. The results will help you decide how hot, cold, wet, or windy it might be!

Date:

Astronomy

Aug. 30, 2013 Rise Set
Actual Time 7:08 AM EDT 7:56 PM EDT
Civil Twilight 6:44 AM EDT 8:20 PM EDT
Nautical Twilight 6:15 AM EDT 8:49 PM EDT
Astronomical Twilight 5:46 AM EDT 9:18 PM EDT
Moon 1:59 AM EDT (8/30) 3:58 PM EDT (8/30)
Length of Visible Light 13h 36m
Length of Day
12h 47m
Waning Crescent, 29% of the Moon is Illuminated
Aug 30
Waning Crescent
Sep 5
New
Sep 12
First Quarter
Sep 19
Full
Sep 26
Last Quarter

Hourly Weather History & Observations

Time (EDT) Temp. Heat Index Dew Point Humidity Pressure Visibility Wind Dir Wind Speed Gust Speed Precip Events Conditions
12:53 AM 78.1 °F - 75.0 °F 90% 29.97 in - Calm Calm - N/A   Unknown
1:53 AM 77.0 °F - 75.0 °F 94% 29.96 in - Calm Calm - 0.01 in   Unknown
2:53 AM 77.0 °F - 73.9 °F 90% 29.96 in - Calm Calm - N/A   Unknown
3:53 AM 75.9 °F - 73.9 °F 94% 29.95 in - Calm Calm - N/A   Unknown
4:53 AM 75.9 °F - 73.9 °F 94% 29.94 in - Calm Calm - N/A   Unknown
5:53 AM 77.0 °F - 75.0 °F 94% 29.94 in - Calm Calm - N/A   Unknown
6:53 AM 77.0 °F - 73.9 °F 90% 29.95 in - Calm Calm - N/A   Unknown
7:53 AM 77.0 °F - 75.0 °F 94% 29.97 in - Calm Calm - N/A   Unknown
8:53 AM 81.0 °F 87.9 °F 77.0 °F 88% 29.98 in - NW 3.5 mph - N/A   Unknown
9:53 AM 84.9 °F 94.1 °F 75.9 °F 74% 29.99 in - WNW 4.6 mph - N/A   Unknown
10:53 AM 88.0 °F 97.5 °F 75.0 °F 65% 29.99 in - NW 5.8 mph - N/A   Unknown
11:53 AM 89.1 °F 98.0 °F 73.9 °F 61% 29.99 in - WSW 5.8 mph - N/A   Unknown
12:53 PM 88.0 °F 96.5 °F 73.9 °F 63% 29.97 in - West 5.8 mph - N/A   Unknown
1:53 PM 89.1 °F 97.0 °F 73.0 °F 59% 29.96 in - WNW 6.9 mph - N/A   Unknown
2:53 PM 91.0 °F 100.4 °F 73.9 °F 57% 29.93 in - WSW 6.9 mph - N/A   Unknown
3:53 PM 91.0 °F 99.3 °F 73.0 °F 55% 29.91 in - West 6.9 mph - N/A   Unknown
4:53 PM 91.9 °F 101.3 °F 73.9 °F 55% 29.89 in - West 6.9 mph - N/A   Unknown
5:53 PM 89.1 °F 97.0 °F 73.0 °F 59% 29.90 in - West 10.4 mph - N/A   Unknown
6:53 PM 87.1 °F 96.3 °F 75.0 °F 67% 29.89 in - WSW 8.1 mph - N/A   Unknown
7:53 PM 84.0 °F 92.6 °F 75.9 °F 76% 29.88 in - Calm Calm - N/A   Unknown
8:53 PM 82.0 °F 89.4 °F 75.9 °F 82% 29.91 in - South 3.5 mph - N/A   Unknown
9:53 PM 81.0 °F 87.3 °F 75.9 °F 85% 29.94 in - Calm Calm - 0.01 in   Unknown
10:53 PM 80.1 °F 85.4 °F 75.9 °F 87% 29.95 in - North 6.9 mph - N/A   Unknown
11:53 PM 75.9 °F - 72.0 °F 87% 29.95 in - NNW 5.8 mph - N/A   Unknown